Weather History for Comox, BC

Change the Weather History Date:

Wednesday, August 21, 2013

  Actual Average Record
Temperature  
Mean Temperature 65 °F -  
Max Temperature 77 °F 67 °F 77 °F (2006)
Min Temperature 53 °F 50 °F 50 °F (1996)
Growing Degree Days 15 (Base 50)    
Moisture  
Dew Point 49 °F    
Average Humidity 55    
Maximum Humidity 82    
Minimum Humidity 25    
Precipitation  
Precipitation 0.00 in 0.06 in - ()
Sea Level Pressure  
Sea Level Pressure 30.08 in    
Wind  
Wind Speed 5 mph ()    
Max Wind Speed 12 mph    
Max Gust Speed -    
Visibility 19.9 miles    
Events      
Averages and records for this station are not official NWS values.
T = Trace of Precipitation, MM = Missing Value Source: Averaged Metar Reports

Daily Weather History Graph

Daily Weather History Graph

Search for Another Location

Airport:

Trip Planner

Search our weather history database for the weather conditions in past years. The results will help you decide how hot, cold, wet, or windy it might be!

Date:

Astronomy

Aug. 21, 2013 Rise Set
Actual Time 6:19 AM PDT 8:24 PM PDT
Civil Twilight 5:44 AM PDT 8:59 PM PDT
Nautical Twilight 5:01 AM PDT 9:42 PM PDT
Astronomical Twilight 4:12 AM PDT 10:30 PM PDT
Moon 8:23 PM PDT 7:16 AM PDT
Length of Visible Light 15h 14m
Length of Day
14h 05m
Full, 99% of the Moon is Illuminated
Aug 21
Full
Aug 28
Last Quarter
Sep 5
New
Sep 12
First Quarter
Sep 19
Full

Hourly Weather History & Observations

Time (PDT) Temp. Dew Point Humidity Pressure Visibility Wind Dir Wind Speed Gust Speed Precip Events Conditions
12:00 AM 62.6 °F 46.4 °F 55% 30.12 in 20.0 mi WNW 4.6 mph - N/A   Partly Cloudy
1:00 AM 59.0 °F 48.2 °F 67% 30.13 in 20.0 mi NW 5.8 mph - N/A   Partly Cloudy
2:00 AM 60.8 °F 48.2 °F 63% 30.13 in 20.0 mi NNW 11.5 mph - N/A   Partly Cloudy
3:00 AM 59.0 °F 46.4 °F 63% 30.13 in 20.0 mi WNW 5.8 mph - N/A   Clear
4:00 AM 57.2 °F 48.2 °F 72% 30.13 in 20.0 mi WNW 5.8 mph - N/A   Clear
5:00 AM 56 °F 47 °F 65% 30.13 in 19 mi WNW 2.3 mph - -   Clear
5:00 AM 57.2 °F 48.2 °F 72% 30.13 in 20.0 mi West 3.5 mph - N/A   Partly Cloudy
6:00 AM 55.4 °F 48.2 °F 77% 30.12 in 20.0 mi NW 3.5 mph - N/A   Partly Cloudy
7:00 AM 53.6 °F 48.2 °F 82% 30.13 in 20.0 mi WNW 4.6 mph - N/A   Partly Cloudy
8:00 AM 59.0 °F 50.0 °F 72% 30.13 in 20.0 mi WNW 4.6 mph - N/A   Partly Cloudy
9:00 AM 62.6 °F 50.0 °F 63% 30.13 in 20.0 mi NNW 10.4 mph - N/A   Partly Cloudy
10:00 AM 64.4 °F 50.0 °F 59% 30.12 in 20.0 mi North 10.4 mph - N/A   Scattered Clouds
11:00 AM 67 °F 52 °F 48% 30.13 in 19 mi North 9.2 mph - -   Clear
11:00 AM 66.2 °F 51.8 °F 60% 30.13 in 20.0 mi North 10.4 mph - N/A   Scattered Clouds
12:00 PM 68.0 °F 51.8 °F 56% 30.12 in 20.0 mi North 6.9 mph - N/A   Partly Cloudy
1:00 PM 71.6 °F 50.0 °F 46% 30.10 in 20.0 mi NNE 9.2 mph - N/A   Partly Cloudy
2:00 PM 73.4 °F 51.8 °F 47% 30.09 in 20.0 mi North 9.2 mph - N/A   Partly Cloudy
3:00 PM 73.4 °F 50.0 °F 44% 30.06 in 20.0 mi NNE 8.1 mph - N/A   Partly Cloudy
4:00 PM 75.2 °F 48.2 °F 38% 30.04 in 20.0 mi North 5.8 mph - N/A   Scattered Clouds
5:00 PM 76 °F 47 °F 25% 30.02 in 19 mi NNE 6.9 mph - -   Clear
5:00 PM 77.0 °F 46.4 °F 34% 30.02 in 20.0 mi NE 6.9 mph - N/A   Scattered Clouds
6:00 PM 77.0 °F 46.4 °F 34% 30.00 in 20.0 mi NNE 4.6 mph - N/A   Partly Cloudy
7:00 PM 77.0 °F 44.6 °F 32% 29.99 in 20.0 mi NNW 4.6 mph - N/A   Partly Cloudy
8:00 PM 75.2 °F 44.6 °F 34% 29.98 in 20.0 mi NW 3.5 mph - N/A   Scattered Clouds
9:00 PM 69.8 °F 48.2 °F 46% 29.98 in 20.0 mi Calm Calm - N/A   Partly Cloudy
10:00 PM 66.2 °F 50.0 °F 56% 29.98 in 20.0 mi WNW 2.3 mph - N/A   Partly Cloudy
11:00 PM 63 °F 51 °F 56% 29.98 in 19 mi NW 5.8 mph - -  
11:00 PM 62.6 °F 51.8 °F 68% 29.98 in 20.0 mi NW 4.6 mph - N/A   Clear